Location: Albuquerque Trailhead
(34.7934°N, 106.3736°W)
Time: 00:03:41
(UTC+00:00)

Resurs 1-4 Rocket - Pass Details

Date: 20 June 2021
Orbit: 800 x 813 km, 98.6° (Epoch: 01 August)

Event Time Altitude Azimuth Distance (km) Brightness Sun altitude
Rises 09:41:51 0° 356° (N) 3,339 6.0 -21.2°
Reaches altitude 10° 09:44:42 10° 341° (NNW) 2,405 5.0 -20.8°
Maximum altitude 09:48:37 21° 294° (WNW) 1,736 3.7 -20.3°
Enters shadow 09:49:47 20° 275° (W) 1,805 3.6 -20.2°
